Temp
8 8 8 8 8 8 8 8 8 8 7 7 7 8 8 8 8 8 8 8 8 7 8 8 8 8 8 8 8 8 7 8 9 8 9 15 19 20 20 20 21 20 20 20 19 19 19 19 19 18 19 19 19 20 20 20 21 22 21 20 20 20 21 21 23 23 23 24 25 25 24 24 25 23 23 23 22 22 22 22 21 20 21 21 21 20 19 18
8 8 8 8 8 8 8 8 8 8 7 7 7 7 7 7 7 8 8 8 8 7 8 8 7 8 7 8 8 7 7 8 8 8 12 18 19 20 20 20 20 20 19 19 19 19 19 20 18 18 19 19 19 20 20 21 21 21 20 20 20 21 21 22 23 23 23 24 25 25 24 24 24 24 23 23 21 22 22 21 21 20 20 20 19 19 19 19
8 8 8 8 8 8 8 8 8 8 7 7 7 8 7 7 8 7 8 8 8 7 7 8 8 8 8 8 7 7 7 7 9 13 17 20 20 20 20 21 20 20 19 19 19 19 20 20 18 18 20 20 19 20 20 21 21 21 21 20 21 21 22 22 22 23 24 24 24 25 25 24 24 24 24 22 21 22 22 21 21 21 21 20 19 19 18 18
8 8 8 8 8 8 8 8 8 8 7 7 7 7 7 7 7 7 7 7 7 7 7 7 7 7 8 7 7 8 6 9 15 18 18 19 19 19 20 21 20 20 20 19 19 19 20 20 19 19 20 20 20 20 20 21 21 21 21 21 21 21 22 23 23 24 25 24 24 25 25 25 24 24 24 22 21 22 21 22 22 21 20 20 19 19 18 18
8 8 8 8 8 8 8 8 8 7 7 7 7 7 7 7 7 7 7 7 7 7 7 7 7 7 8 7 7 7 7 14 19 18 17 18 19 19 20 21 20 20 19 19 19 18 19 19 19 20 20 20 20 20 21 21 21 21 21 21 22 22 22 23 24 24 24 24 24 25 26 26 25 24 23 22 22 23 22 22 22 21 20 20 19 19 18 18
8 8 8 8 8 8 8 8 8 7 7 7 7 7 7 7 7 7 7 7 7 7 7 7 7 7 7 7 7 7 10 17 18 16 17 18 18 20 20 20 20 19 18 18 18 18 19 19 20 20 20 20 20 21 21 21 21 21 21 21 23 23 22 23 24 24 24 24 25 25 25 25 25 23 23 23 22 22 23 23 22 20 20 20 19 19 19 18
8 8 8 8 8 8 8 8 8 7 7 7 7 7 7 7 7 7 7 7 7 7 7 7 7 7 7 7 8 7 9 14 16 16 17 17 18 20 20 20 20 18 18 18 18 18 19 19 20 19 20 20 20 20 21 21 21 21 21 22 23 23 22 23 24 24 23 23 24 24 24 24 25 23 22 23 21 21 22 22 21 20 20 20 19 19 19 18
7 7 7 7 7 7 8 8 8 7 7 7 7 7 7 7 7 7 7 7 7 7 7 7 7 7 7 7 7 8 8 12 15 17 17 17 18 19 19 18 19 18 17 18 18 18 19 19 20 19 20 20 20 20 21 21 22 21 21 22 23 23 23 23 23 23 23 23 23 24 24 24 24 23 22 22 21 21 22 22 21 20 20 19 19 19 19 19
7 7 7 7 7 7 7 8 7 8 7 7 7 7 7 7 7 7 7 7 7 7 7 7 7 7 7 6 6 8 11 14 16 16 17 17 17 18 18 16 17 18 17 18 18 18 19 20 20 20 20 20 20 21 21 21 22 22 22 22 23 23 23 23 23 23 23 23 24 25 23 22 22 23 22 21 21 22 22 22 21 20 20 20 19 19 19 19
7 7 7 7 7 7 7 7 8 8 8 7 7 7 7 7 7 7 7 7 7 7 7 7 7 7 7 6 6 9 14 15 16 16 17 17 16 17 17 16 16 18 17 17 18 18 19 19 19 20 21 20 20 21 21 22 22 22 22 22 23 23 23 22 23 24 23 24 25 25 23 22 23 23 22 22 21 22 21 21 21 20 20 20 20 19 19 19
6 6 7 7 7 7 7 7 7 8 8 8 7 7 7 7 7 7 6 6 7 7 7 7 7 6 7 6 6 9 14 15 16 16 16 16 17 17 17 16 16 17 18 17 18 19 19 19 19 20 21 21 21 21 21 22 22 22 22 23 23 23 23 22 24 23 23 25 25 24 23 22 24 23 22 22 22 22 21 21 21 21 21 20 20 19 19 18
6 6 6 7 7 7 7 7 7 7 7 7 7 7 7 7 7 6 6 6 6 7 7 7 7 6 7 6 5 10 15 16 16 16 16 16 17 17 17 17 17 18 18 18 18 19 20 20 20 20 21 21 21 21 21 22 22 22 22 23 24 24 24 24 25 24 24 25 24 23 23 23 24 22 21 22 22 22 21 21 21 21 21 20 19 19 18 18
6 6 6 6 7 7 7 7 7 7 7 7 7 7 7 7 6 6 6 6 6 6 7 7 7 6 6 6 7 11 15 16 15 15 16 16 16 17 17 18 18 18 19 18 18 18 20 20 20 20 20 20 21 21 21 21 22 23 22 22 23 23 24 25 24 23 25 25 24 24 23 23 23 21 21 21 21 22 21 21 21 21 20 19 19 19 18 17
6 6 6 6 6 7 7 7 7 7 7 7 7 7 7 7 6 6 6 6 6 6 6 6 6 6 6 6 8 12 14 14 14 15 17 17 16 17 18 18 18 18 19 18 18 19 19 20 20 20 20 20 21 21 21 21 21 22 22 22 21 21 23 25 23 23 26 24 23 25 23 23 22 20 21 21 21 22 21 21 21 20 20 20 20 19 17 17
6 6 6 6 6 6 7 7 7 7 7 7 7 7 7 7 6 6 6 6 6 6 6 6 6 6 5 6 9 12 13 13 13 16 18 16 15 17 18 18 18 18 19 18 18 19 19 19 19 19 20 20 21 20 20 21 21 21 21 21 20 20 22 25 24 23 26 24 23 25 23 22 22 21 21 21 21 22 21 21 21 20 20 20 20 19 18 17
6 6 5 5 5 6 6 6 7 7 7 7 7 7 7 7 6 6 6 6 6 6 6 6 6 6 5 7 10 12 12 12 14 17 18 17 16 16 17 18 18 18 18 18 18 19 18 18 19 19 20 20 20 20 20 20 20 20 20 21 20 21 22 24 24 23 24 25 24 25 23 22 22 21 22 21 21 22 21 21 21 21 21 20 19 19 18 18
5 6 5 5 5 5 6 6 6 6 7 7 7 7 6 6 6 6 6 6 6 6 6 6 6 5 7 9 11 13 13 14 15 16 17 17 17 17 17 18 18 17 17 17 18 18 18 18 19 19 20 20 20 20 20 19 20 20 20 20 20 21 21 22 24 23 23 25 24 24 24 23 21 21 21 20 19 20 21 21 21 21 21 20 19 19 18 18
5 5 5 5 5 5 6 6 6 6 6 7 7 6 6 6 6 6 6 6 6 6 6 6 6 7 9 10 11 13 14 14 15 15 16 17 17 17 17 18 18 17 17 17 18 18 18 18 19 19 19 19 19 20 19 18 19 20 20 21 20 20 21 21 24 24 23 25 24 24 24 23 21 21 21 18 17 20 21 21 21 21 20 20 19 19 19 19
6 5 5 5 5 5 5 6 6 6 6 7 7 6 6 6 6 6 5 6 5 6 7 6 6 9 11 11 11 12 13 14 15 15 16 17 17 17 17 18 18 18 18 17 17 18 18 18 18 18 18 18 19 19 19 19 20 21 20 21 21 20 21 21 23 23 23 25 24 24 25 23 21 21 21 19 17 19 19 18 19 20 20 20 19 19 19 19
5 5 5 5 5 5 5 6 6 6 6 6 6 6 6 6 6 6 5 5 5 7 8 7 6 9 11 11 10 11 13 14 15 15 16 17 17 16 17 18 18 18 18 17 17 17 18 18 17 17 17 18 18 19 20 20 20 20 20 21 21 20 22 22 23 23 23 24 24 23 23 22 21 21 20 19 18 18 18 17 17 19 20 20 19 19 19 18
5 5 5 5 5 5 5 5 5 6 6 6 6 6 6 6 7 7 6 5 6 6 7 7 7 8 9 10 9 10 12 13 13 14 15 17 17 17 17 17 17 17 17 18 18 17 18 17 16 17 18 18 18 19 20 19 19 20 20 21 20 20 21 22 22 22 22 24 23 21 22 20 20 21 20 18 18 18 18 18 18 17 18 20 19 19 19 18
5 5 5 5 5 5 5 5 5 5 6 6 6 6 6 6 7 7 6 6 6 6 6 7 7 7 8 9 9 10 10 10 13 14 16 16 16 17 17 17 17 16 16 17 17 17 17 16 17 17 18 18 18 18 19 19 19 20 20 20 20 20 21 21 22 22 22 24 23 21 22 21 20 21 20 18 19 19 18 18 18 17 17 19 19 19 18 17
5 5 5 5 5 5 5 5 5 5 5 5 5 6 6 6 6 7 6 5 6 7 6 6 6 7 8 8 9 10 9 10 12 14 16 16 16 17 17 16 17 17 16 16 17 16 16 16 17 17 17 18 18 17 18 19 19 19 19 20 20 20 20 21 21 22 22 22 22 22 22 21 20 20 19 19 19 19 18 18 18 18 17 18 18 18 18 18
5 4 5 5 5 5 5 5 5 5 5 5 5 6 6 6 6 6 6 5 6 7 7 7 7 7 8 9 10 10 10 11 12 13 16 16 16 16 17 16 16 16 16 16 16 16 17 17 17 17 18 19 19 17 17 18 18 18 19 20 20 20 20 21 21 22 22 21 21 22 21 21 20 20 19 18 19 19 17 18 18 17 16 16 17 18 18 18
4 4 4 5 5 5 5 4 5 5 5 5 5 6 6 6 6 6 6 6 6 7 8 8 8 9 10 10 11 11 10 11 12 14 15 16 16 17 17 17 17 16 16 16 16 16 17 17 17 17 18 18 19 18 17 18 19 18 19 20 20 21 21 21 21 22 22 21 21 21 21 21 20 20 20 18 19 18 17 18 18 16 16 17 17 17 17 17
4 4 4 4 4 4 4 4 5 5 5 5 5 6 6 6 5 6 6 6 6 8 9 9 10 11 11 10 11 12 12 12 13 14 15 16 17 18 17 17 17 16 15 16 16 17 18 17 17 18 17 18 19 18 17 18 19 19 19 19 20 21 21 21 21 21 21 21 21 20 21 21 20 20 20 19 19 18 17 18 18 16 17 17 16 17 17 17
4 4 4 4 4 4 4 5 5 5 5 6 6 6 6 6 5 6 7 6 7 10 10 9 11 12 12 11 12 12 12 14 14 13 14 16 17 18 18 17 17 17 16 16 16 17 17 17 17 17 17 17 18 18 17 18 19 19 19 19 20 20 21 21 21 21 20 20 20 20 21 21 20 20 19 18 18 18 17 18 18 17 17 17 17 16 16 17
4 4 4 4 4 4 4 4 4 5 5 5 5 6 6 6 5 6 7 7 10 12 11 10 12 13 13 12 12 13 14 15 15 14 14 16 17 18 18 17 17 17 17 17 16 16 17 17 17 17 17 17 17 18 18 18 20 20 18 19 21 21 21 21 21 20 20 20 20 20 20 20 20 19 18 19 19 18 18 18 17 17 17 17 17 16 16 17
4 4 4 4 4 4 4 4 4 5 5 5 5 5 6 5 5 6 6 8 11 13 12 12 13 13 12 11 12 14 15 15 16 14 14 16 16 17 17 17 18 18 18 18 17 17 18 18 18 18 17 17 18 19 18 19 21 20 18 19 20 20 20 20 20 20 20 20 20 20 20 20 20 18 17 19 19 18 18 18 18 18 18 18 17 17 17 17
4 4 4 4 4 4 4 4 4 5 5 5 5 5 6 5 6 6 6 9 12 13 13 13 12 12 11 11 11 13 14 15 15 14 15 16 16 17 17 18 18 18 17 17 18 18 18 18 18 18 18 18 19 18 18 20 21 20 19 21 21 20 20 20 19 20 20 20 20 20 20 21 20 19 18 19 20 20 19 18 18 19 18 18 18 18 18 17
4 4 4 4 4 4 4 4 4 5 4 4 5 5 5 5 6 7 8 11 12 12 13 12 12 11 11 11 11 12 13 14 15 15 15 16 16 16 17 17 17 17 16 16 17 18 18 18 18 18 19 19 19 18 18 19 20 20 20 21 21 20 20 20 19 20 19 20 20 19 19 20 20 20 19 19 21 21 20 19 19 19 19 19 18 18 18 18
3 4 4 4 4 4 4 4 4 5 4 5 5 5 5 6 7 7 8 11 11 11 12 12 11 11 11 11 12 12 13 14 15 15 15 15 15 15 16 16 16 16 15 15 16 17 17 18 18 19 20 20 19 18 18 18 19 20 20 20 20 19 19 19 19 19 19 20 19 17 18 20 20 20 19 19 21 21 21 20 20 20 19 19 18 18 18 18
4 4 4 4 4 4 4 4 4 4 4 5 5 5 5 6 7 7 9 10 10 10 11 12 12 11 11 11 12 12 13 14 15 16 15 15 15 15 16 17 16 16 15 15 16 16 16 18 18 19 19 20 20 18 18 18 18 19 20 19 19 18 18 18 18 17 18 20 18 17 19 20 20 20 18 18 20 20 21 21 20 20 19 19 18 18 18 17
3 4 4 4 4 4 4 4 4 4 4 5 5 5 6 7 8 9 9 9 10 10 11 11 11 11 11 12 13 13 13 14 15 16 15 15 15 15 16 16 16 17 16 16 16 15 16 16 17 18 19 19 20 19 19 18 17 18 19 20 19 19 19 19 19 19 20 20 18 18 20 20 20 19 17 16 17 18 20 20 19 19 18 18 18 18 18 17
4 4 4 4 4 4 4 4 4 4 4 5 5 5 6 7 8 9 9 8 9 9 10 10 11 11 11 12 13 14 14 14 15 15 15 14 14 14 15 15 16 17 17 16 15 16 16 16 17 19 19 19 20 20 20 18 18 18 19 19 19 20 20 19 18 19 19 20 19 18 18 18 18 18 16 16 16 17 19 19 18 18 18 18 18 18 17 17
4 4 4 4 4 5 5 4 4 5 5 5 6 6 7 8 8 8 7 7 8 8 8 10 12 12 11 12 13 14 15 15 15 15 15 14 15 15 15 16 16 17 17 16 15 16 16 17 18 18 19 19 20 20 20 20 19 18 18 19 19 20 21 19 17 16 17 20 19 16 17 18 18 18 17 17 17 18 18 18 18 18 18 18 17 17 17 16
4 4 4 4 4 4 5 4 4 5 5 5 6 7 8 8 7 7 7 6 8 9 8 10 12 12 11 12 13 13 15 15 15 15 14 15 15 15 16 16 16 17 18 18 17 16 16 17 18 18 18 19 20 20 21 21 20 18 18 19 19 19 20 20 19 18 18 20 18 15 17 18 18 19 18 17 18 18 18 18 18 18 18 17 16 16 16 15
4 5 5 5 5 5 5 5 4 4 5 6 7 7 8 8 6 6 6 6 8 9 8 9 11 12 12 13 13 14 15 15 15 15 15 15 15 16 16 16 17 18 18 18 18 17 17 18 18 19 19 19 19 20 20 19 20 20 20 20 20 20 19 19 19 19 19 19 17 16 18 18 18 19 18 18 18 18 18 18 18 18 17 16 15 15 15 15
4 4 5 5 5 5 5 4 4 4 6 7 7 7 8 7 6 6 6 7 8 8 8 9 10 11 12 14 13 14 15 15 15 15 15 15 16 16 17 17 17 18 18 19 19 17 17 18 18 18 19 20 20 19 19 18 19 19 20 20 20 20 20 19 19 19 20 18 17 17 17 17 18 19 19 18 18 18 18 18 18 18 17 16 15 15 15 15
4 4 5 5 5 5 5 4 4 5 6 7 6 7 8 7 6 6 7 7 8 8 8 9 9 10 12 13 14 14 15 14 15 15 15 16 16 15 17 18 18 17 18 19 19 18 17 18 18 18 18 19 19 19 19 18 19 19 19 19 19 20 20 20 19 18 19 18 17 17 17 17 18 19 19 19 18 18 18 18 18 17 16 16 15 15 14 14
4 5 5 6 6 6 5 5 5 6 6 7 7 7 7 7 7 7 7 8 8 9 9 8 9 9 10 12 14 15 15 14 15 16 15 16 16 16 17 18 18 17 17 18 19 18 18 18 18 18 18 18 19 20 20 19 19 20 19 19 19 20 20 20 19 17 18 18 17 18 19 20 18 16 18 19 18 18 18 18 17 16 16 15 15 14 14 14
5 5 5 6 7 6 6 6 6 6 6 7 7 7 7 8 7 7 7 8 8 8 9 9 9 9 10 11 13 14 15 15 15 16 16 16 16 17 17 18 18 18 18 18 18 18 18 18 18 18 19 19 20 20 20 20 21 20 20 20 20 20 20 21 20 19 18 17 16 17 20 20 17 15 17 19 18 18 17 17 16 15 15 15 14 14 14 14
4 5 6 7 7 7 7 7 6 6 7 7 7 7 8 7 7 7 7 7 7 8 9 9 9 10 11 12 13 14 15 15 15 16 16 16 17 17 18 18 18 18 18 18 18 18 18 18 18 18 19 19 19 19 19 20 20 20 20 20 19 20 21 21 20 20 19 18 18 19 20 20 17 15 17 18 17 17 17 16 16 15 14 14 14 14 13 13
4 4 5 7 7 7 7 6 6 6 7 7 7 7 8 7 6 7 7 7 8 8 9 9 10 11 12 13 13 14 15 15 15 16 16 17 18 18 17 18 18 18 19 18 18 18 18 18 18 18 19 19 19 19 19 19 20 20 20 19 20 20 20 20 19 19 20 19 19 21 21 19 17 15 16 17 16 16 16 15 15 14 14 14 13 13 13 13
4 4 5 6 7 7 6 6 6 6 6 7 7 7 7 7 7 7 7 7 8 8 8 9 10 11 11 13 14 15 15 15 15 16 17 17 17 17 17 18 18 18 19 19 19 19 18 18 18 18 18 18 18 19 19 18 19 20 20 19 20 20 21 21 20 20 20 18 18 21 20 18 16 16 16 16 16 16 15 15 15 14 14 14 13 13 13 13
5 5 5 6 7 6 6 6 5 6 6 6 7 7 7 7 8 8 8 7 8 8 8 9 10 11 11 13 14 14 15 15 15 16 16 17 18 17 17 18 18 19 19 20 19 19 18 18 18 19 19 18 19 19 18 18 19 20 20 19 20 20 21 21 20 21 20 18 18 20 19 17 16 16 16 16 15 15 15 14 14 14 14 14 13 13 13 13
5 5 5 6 7 6 6 6 5 5 6 6 6 7 7 7 8 9 9 9 9 9 9 9 10 11 12 13 14 14 13 14 15 15 16 17 17 17 16 17 18 19 19 19 19 19 19 18 18 19 18 17 17 16 16 17 20 21 20 20 20 19 20 21 21 20 19 18 20 19 16 17 18 16 16 16 15 15 15 14 14 14 14 14 13 13 13 13
5 5 5 6 6 6 6 6 6 5 6 6 6 6 7 7 8 8 9 9 10 10 10 11 11 11 13 14 14 13 13 14 14 14 15 16 16 16 17 16 17 19 19 19 19 20 20 18 17 18 18 16 16 15 16 17 18 18 19 20 20 20 20 22 21 20 19 21 22 19 16 18 18 16 16 16 15 15 15 14 14 14 13 13 13 13 13 13
6 5 6 6 6 6 6 6 6 6 6 6 6 6 7 7 8 9 9 9 11 11 12 12 12 12 13 13 13 13 12 13 14 13 14 15 15 16 17 17 16 17 18 19 18 19 20 19 17 18 19 17 16 15 15 16 17 16 16 17 18 19 20 21 20 17 18 21 21 18 16 17 17 16 16 16 15 15 14 14 14 13 13 13 13 13 13 13
5 6 6 6 6 5 5 6 6 6 7 7 7 7 7 7 8 9 9 10 11 12 12 12 12 12 13 13 13 12 12 13 13 12 13 14 15 16 16 17 16 16 17 19 18 18 19 18 17 19 20 18 17 15 15 16 17 17 15 13 16 18 18 19 18 16 18 19 16 15 15 15 16 16 16 15 15 14 14 13 13 13 13 13 13 13 13 13
5 5 6 6 6 6 6 6 6 6 7 7 7 8 8 9 9 9 10 11 11 11 11 12 12 12 13 13 12 12 12 12 12 13 12 13 15 15 15 15 15 16 18 18 18 18 19 18 17 19 19 18 17 16 15 16 17 17 16 14 16 18 17 17 16 16 18 18 14 15 17 16 16 16 15 14 14 14 13 13 13 13 13 13 13 13 13 13
5 5 6 6 6 7 6 6 6 7 8 8 8 9 9 9 9 9 10 12 12 11 11 11 12 13 14 13 13 12 12 12 12 13 12 12 13 14 14 13 13 16 18 18 17 18 19 18 17 18 18 17 16 15 16 17 18 18 17 14 13 14 15 15 15 14 16 17 16 19 21 17 15 15 15 14 14 14 14 13 13 13 13 13 13 13 13 13
Height
803 803 802 802 801 800 799 799 798 797 796 795 794 794 793 792 791 791 790 789 788 787 785 784 783 782 780 779 777 775 773 769 765 766 760 749 749 753 753 753 754 755 756 757 758 760 760 761 761 762 763 764 766 766 767 767 767 771 779 787 787 785 783 777 774 772 769 765 760 756 757 759 757 754 751 751 754 757 761 762 761 761 759 760 761 763 769 773
802 802 801 801 800 799 798 798 797 796 795 794 794 793 792 792 791 790 789 788 787 786 785 784 782 781 780 779 777 775 772 768 766 761 749 745 750 751 751 753 753 755 756 757 758 759 760 761 761 762 764 766 767 767 767 767 767 772 781 786 783 779 775 770 768 767 766 764 759 756 756 757 755 754 752 758 764 759 763 766 764 765 764 763 764 766 771 774
800 800 800 799 799 798 797 797 796 795 794 794 793 792 792 791 790 790 789 788 787 786 784 783 782 781 780 778 777 775 771 768 764 753 743 745 748 747 748 750 752 753 755 757 758 758 759 759 760 762 764 767 768 768 769 768 768 772 778 783 778 773 770 766 766 764 762 761 760 757 754 755 754 751 752 761 767 762 763 764 764 767 767 766 767 768 772 775
799 798 798 798 798 797 796 796 795 794 794 793 792 792 791 790 790 789 788 787 786 785 784 782 781 780 779 777 776 773 772 768 755 744 743 745 744 744 745 746 749 751 754 756 757 758 758 759 760 762 764 768 768 768 770 768 768 771 773 776 771 769 768 764 763 761 759 759 760 758 754 755 753 751 754 762 768 767 762 755 753 759 762 765 767 769 773 776
797 796 796 796 796 795 795 794 794 793 792 792 791 791 790 789 789 788 787 786 785 784 783 782 781 780 778 777 775 773 773 763 746 740 742 743 742 742 742 742 746 749 752 755 756 758 758 759 760 762 765 768 769 768 769 766 766 770 769 769 765 766 767 761 760 759 758 758 758 758 756 754 752 753 756 760 766 763 757 751 750 752 755 759 763 768 772 776
796 795 795 794 794 794 793 793 792 792 791 791 790 790 789 788 788 787 786 785 785 784 783 782 780 780 778 776 774 773 771 754 740 741 741 740 741 739 739 740 742 746 751 754 755 757 758 759 760 764 765 767 770 768 767 765 764 770 768 765 763 762 764 760 758 757 757 758 758 757 756 753 754 757 756 758 762 756 750 750 753 756 757 759 762 767 772 776
794 794 793 792 792 792 791 791 791 790 790 789 789 789 788 787 787 786 785 785 784 783 782 781 780 779 777 776 772 772 772 753 739 742 741 740 740 738 738 738 740 745 749 752 754 756 757 759 761 764 766 767 769 767 765 764 764 769 768 764 761 760 761 759 757 757 757 758 757 755 755 754 756 758 757 757 758 754 750 750 754 759 762 765 768 771 775 778
792 792 791 791 790 789 789 789 789 789 788 788 788 788 787 786 786 785 784 784 783 782 782 781 780 779 777 775 773 774 771 751 738 741 740 740 739 738 738 737 739 743 747 750 752 755 756 758 760 762 766 766 767 766 764 765 765 767 767 763 759 758 757 757 757 757 757 757 755 754 755 755 754 755 759 760 758 755 752 752 757 761 765 770 773 775 778 779
791 790 789 789 788 788 787 786 787 787 787 787 786 786 786 785 785 784 784 783 782 782 781 780 780 778 778 776 776 772 758 742 740 742 741 740 740 739 739 739 740 742 746 749 751 753 755 757 758 759 762 764 764 764 762 766 767 763 762 761 759 757 755 755 756 755 755 754 752 754 757 757 753 755 761 760 757 756 754 756 760 764 767 771 774 775 775 777
789 788 788 787 786 786 785 784 785 784 785 785 785 785 784 784 783 783 782 782 782 781 780 781 778 778 778 775 778 768 746 739 742 741 741 741 741 741 740 740 741 742 745 749 751 752 752 754 756 756 759 761 762 763 762 764 764 759 759 759 758 757 755 755 754 753 755 753 750 753 758 759 752 755 764 760 755 756 757 760 763 766 769 771 772 772 773 777
788 787 786 785 784 784 783 782 782 782 782 782 783 783 783 783 782 781 781 781 781 780 780 779 778 779 777 776 780 764 740 739 741 739 741 741 741 742 741 741 742 743 744 748 750 750 751 753 753 755 759 760 761 763 761 760 759 758 759 758 757 756 755 755 753 753 754 751 749 751 757 758 753 757 762 758 756 757 759 762 765 767 770 770 771 772 776 780
786 785 784 783 783 782 781 781 780 780 780 780 781 781 781 781 781 780 780 780 779 779 779 778 778 777 776 777 772 752 738 739 739 739 741 740 741 741 742 743 743 744 744 746 749 749 752 752 752 756 758 758 761 764 761 757 757 757 758 760 757 754 753 751 750 751 751 751 748 751 761 762 759 762 761 756 756 759 762 764 767 769 770 771 772 774 778 780
784 783 783 782 781 780 779 779 778 778 777 778 778 779 780 779 779 779 778 779 778 778 778 778 777 776 778 774 756 741 740 740 739 739 739 739 741 740 741 742 743 744 744 746 748 750 752 752 753 755 756 758 761 761 758 757 758 757 758 761 761 761 756 749 750 751 749 751 745 750 768 769 765 765 759 757 757 760 766 766 768 771 772 773 773 775 779 781
783 782 781 780 779 778 778 777 776 775 775 775 776 777 777 777 778 777 777 778 777 777 777 777 776 775 777 765 744 741 742 740 739 737 736 739 739 739 740 741 742 744 745 746 748 750 751 752 754 755 756 757 757 757 759 760 759 759 761 763 768 772 761 747 750 753 750 752 746 750 767 768 767 766 759 758 758 759 767 768 769 771 772 773 773 776 780 782
781 780 779 778 777 776 776 775 774 773 773 772 773 774 774 775 776 776 777 776 776 776 775 776 775 775 777 762 743 740 740 739 737 732 734 738 739 739 739 740 742 743 745 746 748 749 750 752 755 758 757 756 757 761 765 765 763 765 767 771 775 775 764 750 748 751 750 752 749 752 767 771 769 767 760 760 760 760 766 768 770 771 772 774 775 778 781 783
779 778 777 776 775 775 774 773 772 772 771 770 770 772 772 773 773 774 775 774 775 775 775 776 773 775 776 758 741 739 737 736 733 730 734 735 737 739 739 740 741 742 744 746 748 748 750 752 755 757 757 757 761 765 769 771 770 771 771 773 775 773 768 758 748 749 750 751 752 753 765 773 770 765 761 762 764 764 766 768 770 771 772 774 776 779 782 784
777 776 775 774 774 773 772 771 770 770 769 768 768 769 770 770 771 772 772 773 774 773 774 773 772 776 768 747 739 738 735 733 731 731 733 733 735 737 739 741 740 742 744 745 748 749 751 753 755 757 757 760 762 764 774 782 779 777 775 773 775 773 772 765 752 749 751 750 755 756 759 767 767 764 763 767 771 770 769 769 770 771 773 775 778 780 783 784
774 773 773 772 772 771 770 769 769 768 768 767 767 767 768 768 769 769 770 771 772 773 775 773 775 773 754 740 741 737 733 733 731 732 731 732 733 735 737 739 739 742 744 747 749 750 753 754 756 760 762 763 764 766 776 783 778 775 774 771 774 774 773 770 758 752 751 750 756 759 759 765 767 765 766 772 776 772 770 771 771 771 773 776 778 781 783 784
771 771 770 770 769 769 768 768 767 767 766 766 765 765 766 766 766 767 768 769 771 772 769 767 768 758 741 738 741 736 734 733 731 730 730 731 732 734 737 737 739 741 744 750 751 750 752 756 759 763 766 766 764 765 770 772 769 768 771 770 771 773 770 769 761 754 752 752 758 760 758 765 770 768 769 773 776 774 775 779 779 775 773 777 779 781 783 784
768 768 768 767 767 767 766 766 765 765 765 764 763 764 765 766 765 766 767 768 766 762 758 758 758 749 740 739 739 737 734 731 730 729 728 729 731 733 736 736 739 742 745 749 752 750 751 758 763 762 764 764 763 763 763 765 767 768 771 771 772 774 768 764 761 755 752 754 760 762 761 767 770 767 769 773 777 779 780 784 786 783 777 776 779 780 783 785
764 764 765 765 765 765 764 764 763 763 763 762 762 763 764 763 763 764 765 764 760 757 755 754 754 749 742 740 740 740 740 735 731 729 728 728 729 733 735 737 740 746 747 747 749 750 752 760 763 759 760 761 761 762 761 766 769 769 771 771 775 776 768 764 763 758 754 754 762 767 767 771 769 766 771 775 778 778 778 779 781 785 783 777 778 780 782 785
761 761 762 762 762 763 762 762 762 762 762 761 760 761 761 760 761 761 763 763 757 754 754 752 752 750 741 740 741 744 747 743 733 727 726 727 728 731 734 737 742 746 747 747 750 754 758 762 760 757 758 759 762 763 763 767 768 770 773 774 776 776 771 766 763 760 757 755 762 767 767 772 771 767 771 775 774 773 774 774 775 783 787 780 776 779 782 785
758 758 759 759 760 761 760 760 760 760 760 759 758 759 760 760 760 760 762 765 756 748 750 749 749 747 739 738 740 744 748 744 737 729 724 726 728 729 732 738 742 745 747 748 751 758 762 759 755 757 759 758 763 767 766 768 770 772 774 776 777 776 773 769 766 764 760 760 764 765 766 771 774 773 774 775 773 774 777 778 778 781 787 785 779 778 781 785
755 756 757 757 758 759 758 758 757 758 758 757 757 757 759 760 760 760 760 763 757 745 741 740 741 740 733 733 736 741 743 739 735 728 722 725 727 728 731 736 741 745 747 748 750 756 757 752 751 756 757 756 760 767 769 769 773 775 773 773 774 773 772 770 770 765 761 765 764 764 771 776 777 777 779 780 778 779 782 782 783 784 787 790 787 783 782 785
753 754 755 755 757 757 757 757 755 756 756 756 756 756 759 758 758 760 760 762 757 743 736 734 735 731 725 730 734 735 738 734 729 725 722 722 724 726 730 733 738 745 747 748 751 754 752 749 750 754 756 756 759 766 769 768 773 776 772 769 769 769 770 770 770 768 769 772 766 767 778 782 780 780 780 782 781 784 786 783 785 788 787 790 795 792 786 785
753 753 753 754 755 755 756 755 753 754 754 755 755 756 758 756 756 758 759 764 756 737 731 730 728 720 716 727 730 732 737 729 720 721 721 721 720 722 729 732 734 741 747 747 750 752 749 749 750 752 756 758 759 764 767 766 772 776 769 765 768 768 769 770 770 773 777 776 770 770 778 783 784 781 780 782 784 787 788 781 781 785 786 787 794 797 790 786
752 752 752 753 753 754 755 753 753 753 753 754 753 755 757 754 755 755 756 763 747 724 723 726 720 712 712 720 723 729 734 721 713 719 719 719 720 718 726 733 733 738 742 744 751 749 746 749 752 753 756 759 761 763 764 764 769 772 766 764 768 768 769 770 770 775 777 775 774 771 773 781 783 780 779 782 787 790 788 783 781 783 785 784 788 796 795 788
752 751 751 752 752 753 753 753 753 752 752 752 753 756 755 753 755 755 757 755 730 709 715 720 714 709 711 716 718 719 720 712 712 718 716 718 720 718 725 731 731 735 735 740 751 748 743 748 751 753 756 759 759 757 759 761 763 764 763 762 763 764 766 766 769 776 778 778 780 774 773 781 782 782 782 782 787 792 788 784 782 782 784 782 784 794 797 790
752 751 751 751 751 752 752 753 753 752 752 752 753 755 753 755 754 755 758 745 715 703 708 709 710 711 714 719 720 715 712 710 712 715 715 718 719 718 724 727 728 733 733 736 745 744 740 741 743 747 754 755 753 752 755 757 757 758 761 761 761 765 767 768 771 775 779 785 783 775 773 779 783 785 787 785 785 787 783 781 779 779 780 780 782 789 792 790
750 750 751 751 751 751 751 752 751 751 752 752 754 753 753 756 754 756 759 736 709 704 706 706 710 713 717 722 723 718 713 712 711 713 716 718 718 719 721 723 726 731 736 738 739 738 736 736 738 742 747 748 748 751 753 752 751 755 758 758 761 767 767 771 775 774 782 788 779 773 771 774 780 783 784 780 774 773 776 778 778 776 778 779 781 784 786 787
749 749 750 750 750 751 751 751 750 749 752 753 754 754 754 755 753 755 748 722 709 709 707 710 713 713 717 720 721 720 717 714 711 713 716 717 721 722 721 725 728 733 740 743 741 739 737 739 742 739 738 741 745 751 754 750 749 753 757 758 765 771 769 774 778 778 788 787 775 776 775 775 780 776 773 770 761 762 768 772 772 772 773 776 778 781 783 786
748 748 748 749 749 750 750 751 749 750 752 752 753 754 754 754 754 752 735 714 716 717 709 710 714 714 717 717 716 717 716 715 712 711 713 717 723 724 721 724 729 736 747 749 746 745 742 741 742 737 734 736 743 753 757 756 753 753 758 764 774 783 782 783 785 787 792 783 776 782 780 778 777 767 766 766 759 758 759 760 764 767 769 773 775 779 782 784
747 747 747 748 748 749 750 750 750 751 752 751 753 753 753 752 748 741 730 720 721 719 712 712 712 713 716 717 716 715 714 714 710 710 712 715 723 725 721 722 724 732 744 748 748 751 750 744 740 739 737 733 737 750 757 759 759 757 759 765 775 786 791 794 795 797 792 779 778 782 775 776 775 765 768 768 760 757 756 758 762 766 771 773 774 779 782 784
747 747 746 747 747 748 749 749 750 750 751 751 752 753 753 750 739 728 726 727 724 720 716 716 716 714 715 715 712 711 714 713 709 709 713 716 723 725 723 723 723 726 735 743 747 751 754 751 742 739 739 733 734 741 746 753 760 759 757 761 769 774 780 786 787 786 782 776 780 781 774 777 776 768 769 768 764 761 758 761 764 767 772 774 775 779 782 785
747 746 746 746 746 747 748 749 749 750 751 751 751 753 751 745 737 730 731 734 729 725 721 717 715 716 717 713 708 708 709 710 709 710 714 717 720 722 722 724 724 724 730 742 747 746 749 750 738 732 733 731 734 737 737 748 761 761 757 761 767 764 765 777 782 780 775 772 779 784 781 780 774 767 767 767 766 764 760 763 767 770 772 773 776 779 783 786
748 747 746 746 746 747 747 748 749 749 750 749 750 753 747 740 738 736 738 740 735 731 727 717 709 714 720 713 708 708 705 705 709 711 715 717 718 720 721 720 722 722 725 735 743 744 747 747 735 731 733 730 731 733 733 740 753 762 762 762 762 756 757 773 784 787 782 773 780 791 788 780 774 769 768 767 766 766 765 765 768 771 771 774 777 779 783 787
749 747 747 746 746 746 747 748 749 749 749 748 747 746 740 739 742 742 743 743 736 732 731 722 709 710 717 713 709 708 704 705 708 710 715 718 717 718 718 717 719 720 720 725 734 738 742 742 734 731 735 732 728 730 732 733 741 756 762 757 755 758 762 767 775 784 783 777 786 796 789 781 778 772 768 768 768 767 767 766 768 772 772 776 782 783 785 788
749 748 747 746 746 746 747 748 748 749 748 746 744 741 736 739 745 745 745 744 736 732 733 728 715 708 709 710 709 706 703 705 708 709 714 716 715 714 714 716 717 716 716 719 726 731 734 738 735 729 731 732 728 732 740 738 736 743 747 745 750 761 768 771 774 778 779 785 795 794 786 782 779 773 769 767 766 766 767 767 768 772 774 777 784 786 787 788
749 749 749 748 747 746 747 747 748 749 747 744 746 744 739 741 745 745 746 743 736 734 734 729 722 716 708 704 706 705 703 706 708 709 712 713 713 711 709 712 715 716 715 715 721 728 730 735 737 731 727 729 731 736 744 745 740 739 741 743 746 752 757 764 770 768 770 786 797 793 791 787 772 765 764 763 762 762 763 765 766 769 774 777 781 785 787 788
749 750 750 748 747 747 747 747 748 748 746 745 748 746 741 742 744 743 743 741 737 737 736 732 729 725 713 704 704 703 703 706 707 707 709 708 710 713 709 706 712 716 715 714 718 725 729 733 738 734 729 732 734 733 735 741 743 742 746 750 749 748 750 755 763 766 766 779 791 793 795 784 764 757 757 758 761 760 760 762 765 768 772 776 781 785 787 789
748 750 751 748 747 748 748 748 748 748 747 746 747 745 742 742 743 742 740 739 738 735 734 733 732 729 721 711 704 701 702 706 705 705 707 707 709 713 708 704 708 714 716 718 719 722 727 733 737 737 734 733 729 722 724 731 735 737 742 747 747 746 750 757 766 771 768 773 782 784 778 767 760 759 756 754 758 761 762 764 767 771 773 776 781 785 787 789
749 751 751 749 748 748 747 748 749 748 748 747 746 745 743 741 743 743 740 739 738 734 732 731 729 727 723 714 706 701 702 704 705 704 705 706 706 706 704 702 704 708 714 719 720 720 723 728 733 734 732 729 724 720 722 722 725 731 735 739 744 743 743 750 760 765 768 775 781 777 765 758 761 763 756 753 758 761 764 766 769 774 775 777 782 786 788 789
752 753 751 748 748 747 746 747 748 748 747 745 744 743 742 742 744 743 740 740 738 733 730 728 723 719 714 710 706 702 700 702 705 704 703 704 702 700 700 701 703 706 711 717 719 718 721 726 732 733 728 725 723 722 722 721 725 732 733 736 740 739 737 741 747 752 760 770 772 767 763 759 761 762 756 755 760 762 765 768 771 775 777 779 783 787 789 790
755 755 751 750 748 747 748 751 751 750 748 746 745 743 741 742 743 741 740 740 737 732 730 725 719 714 709 705 703 700 698 701 705 703 702 703 699 697 699 700 702 705 708 713 714 716 723 729 733 736 736 734 733 731 730 729 728 730 732 734 734 734 737 742 746 749 754 763 761 756 761 764 763 763 759 758 763 766 769 771 773 775 779 781 784 787 789 789
756 755 753 751 748 749 752 754 754 753 750 748 747 744 741 739 739 738 738 737 734 733 731 724 717 715 712 706 702 699 697 699 704 702 701 702 699 698 700 701 702 703 703 705 707 710 722 729 730 735 742 744 742 737 735 734 731 727 730 732 732 734 734 737 746 748 751 764 762 749 756 767 766 763 762 763 766 768 771 773 775 777 780 782 784 786 788 790
756 756 756 753 750 751 753 753 754 754 752 750 747 742 740 739 735 732 733 732 729 729 729 724 718 715 711 705 701 701 701 701 702 701 701 702 699 699 700 699 701 702 701 702 704 709 720 726 726 727 731 735 734 731 730 730 728 727 730 731 731 732 730 732 741 744 747 761 761 749 755 768 768 764 763 764 766 768 772 774 775 778 781 783 785 787 790 793
758 758 758 755 752 752 752 753 754 754 753 751 748 743 740 739 735 730 728 726 722 723 724 721 718 714 707 703 702 704 706 704 700 701 702 702 701 701 702 701 700 699 700 702 703 709 719 725 725 725 728 733 734 734 735 730 723 722 726 729 731 733 733 732 735 739 746 754 754 754 761 761 760 762 761 761 764 767 771 773 774 777 780 783 787 789 792 795
758 758 758 756 755 755 753 752 753 753 752 751 749 746 741 738 737 732 728 722 716 717 717 714 714 712 705 702 704 706 708 705 703 706 705 702 703 703 702 704 703 699 700 704 704 706 714 723 727 727 730 734 735 735 734 730 728 727 726 726 728 731 731 726 729 737 739 736 736 749 759 753 752 758 758 757 760 762 767 771 774 777 781 784 788 790 792 796
758 758 757 755 756 756 753 752 752 751 750 749 748 745 741 740 737 731 727 723 716 713 712 710 711 710 704 703 706 709 710 708 708 711 708 705 706 705 702 705 705 702 702 705 707 707 711 720 725 723 725 729 733 735 734 731 732 735 737 737 731 730 730 726 733 744 741 733 734 746 757 756 753 755 757 758 761 763 769 773 776 780 783 784 788 790 793 795
759 759 757 756 756 756 754 752 752 749 746 746 744 740 739 738 733 727 725 723 717 711 709 709 710 709 707 706 707 710 711 710 711 713 712 708 707 706 705 705 705 706 705 705 708 709 712 722 724 718 723 730 732 736 737 735 732 734 744 749 738 733 736 735 740 748 743 742 751 756 761 762 755 753 757 760 763 767 772 775 778 781 783 784 787 790 792 795
760 758 757 757 755 753 753 752 751 748 745 743 741 737 734 732 729 727 724 718 716 715 713 712 711 708 706 706 708 710 711 711 712 712 712 710 706 705 705 706 706 706 705 707 709 707 710 722 724 719 727 734 734 738 739 735 733 733 740 748 742 736 738 739 744 747 739 743 759 760 754 755 754 753 758 762 764 769 772 775 778 781 782 783 786 789 791 793
761 758 756 757 754 751 752 751 749 747 743 740 738 734 732 730 727 728 723 715 713 715 715 713 710 706 705 706 709 709 708 710 710 709 710 710 708 707 706 707 707 705 703 706 711 711 711 718 723 725 731 737 739 742 739 732 732 735 740 749 751 748 746 744 747 751 743 743 750 742 733 742 751 753 757 762 764 767 769 771 774 778 781 783 784 786 789 791
Wind_Speed
15 15 15 14 15 14 14 14 14 15 14 14 14 14 14 14 15 15 15 15 16 16 16 17 17 17 18 19 20 21 24 27 27 21 14 22 24 20 17 12 10 9 7 10 10 5 1 3 3 5 6 3 0 2 3 1 2 2 3 2 3 4 4 5 6 6 3 4 6 8 4 2 7 1 1 3 8 9 7 4 3 5 6 7 12 23 29 27
15 15 15 15 15 15 15 14 14 15 15 15 15 14 15 14 15 15 15 15 16 16 16 16 16 17 17 18 20 21 25 27 23 20 26 29 23 22 24 21 19 18 10 5 4 5 5 1 3 6 4 2 1 1 3 2 2 2 3 2 5 5 4 5 6 4 3 5 8 10 6 3 5 2 3 3 7 9 9 4 5 8 9 11 17 26 28 26
15 15 16 16 15 16 15 15 15 15 15 15 15 15 15 15 15 15 15 16 16 16 17 16 16 16 17 18 19 22 25 21 13 14 20 18 16 21 24 23 22 21 16 8 3 4 5 4 9 7 4 2 0 2 3 2 2 2 4 3 6 5 5 5 5 6 6 7 8 9 7 4 3 1 3 4 7 7 8 7 8 10 10 11 14 21 25 25
16 15 15 16 16 16 16 16 16 16 15 15 15 15 15 15 15 15 15 16 16 16 16 16 15 15 17 18 19 22 20 11 5 5 2 5 7 11 16 23 24 23 18 13 7 4 5 7 9 5 4 2 2 1 3 3 3 2 4 5 6 4 4 6 6 8 8 7 4 7 7 4 1 2 4 6 6 3 5 10 13 15 15 15 13 16 20 20
19 18 16 16 16 16 17 17 17 16 16 15 15 15 15 15 15 15 14 15 16 15 16 15 15 15 17 18 20 21 11 3 2 4 6 8 10 14 11 19 23 26 19 12 8 6 6 5 5 3 3 2 1 2 2 4 3 2 3 4 5 3 4 6 5 6 5 4 3 5 6 2 1 2 6 8 4 3 5 7 8 13 17 17 17 16 16 14
19 20 19 18 17 17 17 17 17 16 16 16 15 15 15 15 15 15 14 14 15 15 15 14 15 15 16 19 19 12 2 2 1 4 7 14 14 18 9 16 21 24 20 12 9 7 6 4 4 2 3 2 3 3 4 3 3 2 4 3 5 6 5 4 3 4 3 3 6 4 4 2 1 1 6 6 3 6 2 4 6 9 12 15 17 17 15 13
20 21 20 19 19 19 18 18 17 17 17 16 15 15 14 14 14 15 14 14 14 15 14 14 15 15 17 20 14 3 1 7 7 3 12 17 17 21 9 14 19 21 21 14 10 7 5 5 4 4 4 2 3 4 4 2 1 3 4 4 6 7 7 6 5 6 5 6 8 5 5 5 4 4 2 3 3 4 4 9 12 12 13 15 14 14 14 12
21 21 21 20 20 20 20 19 17 17 17 16 16 15 15 14 14 15 14 14 14 14 14 14 14 13 16 17 7 1 2 12 15 10 16 17 17 19 6 12 19 23 23 18 14 9 6 7 6 4 3 2 4 4 3 1 1 3 5 5 5 6 7 6 6 7 6 6 6 5 6 5 6 5 3 3 2 2 8 12 15 16 15 14 13 14 13 12
21 21 21 20 20 20 20 20 19 18 17 16 16 15 15 14 14 14 14 13 14 13 13 14 13 12 15 11 3 1 6 13 16 15 14 13 11 10 5 9 21 24 21 18 17 12 6 6 6 5 4 3 4 3 3 2 2 5 6 5 5 6 7 5 6 6 5 4 4 3 3 0 3 4 3 3 6 6 10 14 15 16 16 14 12 13 13 13
21 21 21 21 21 20 20 20 21 19 17 17 17 16 15 14 14 14 13 13 13 13 13 12 12 11 12 6 2 3 7 6 9 11 6 8 7 4 5 5 21 23 18 14 14 12 7 6 6 5 4 2 3 3 3 5 3 4 5 5 6 8 8 4 5 5 2 4 6 5 1 2 1 2 2 4 9 9 12 15 14 15 14 14 13 12 10 10
21 21 21 21 21 21 20 20 21 21 19 17 16 16 14 13 14 14 13 13 12 13 12 11 12 11 9 4 1 6 4 2 5 4 3 9 8 4 4 5 18 20 17 11 12 13 7 7 7 4 2 2 3 1 2 4 2 2 3 4 7 6 7 4 4 6 2 3 5 8 3 2 5 3 4 7 11 10 13 16 14 13 11 12 12 10 6 7
20 21 21 21 21 21 21 20 21 21 20 18 16 15 14 14 15 14 13 13 13 12 11 11 10 9 8 4 9 16 8 3 6 8 10 12 11 5 1 6 12 14 17 11 10 14 10 7 6 4 2 3 3 1 2 3 2 2 1 3 7 7 6 5 3 3 5 2 5 8 3 4 5 1 5 9 12 10 12 16 13 11 9 9 9 7 5 6
20 20 20 21 21 21 21 21 21 21 20 19 17 15 14 14 14 13 13 12 12 12 11 11 9 8 6 4 15 24 17 13 17 21 18 15 13 7 2 6 8 10 15 11 9 12 13 11 5 2 2 4 2 2 0 2 2 2 0 2 4 7 6 7 1 4 5 3 7 8 1 4 6 2 8 10 13 14 12 13 12 9 7 7 8 6 6 4
20 20 20 21 21 21 21 21 20 21 20 20 18 15 14 14 14 13 12 12 12 11 10 9 8 7 4 9 19 21 19 20 24 26 22 16 13 7 4 6 8 8 11 10 8 7 12 14 6 2 1 2 2 3 4 5 3 1 1 1 2 2 5 8 1 6 4 2 5 7 2 5 5 3 10 9 11 16 13 12 11 8 7 9 8 5 6 4
21 20 20 20 21 21 20 20 20 21 21 20 19 15 14 14 14 13 12 13 11 10 10 9 7 5 4 12 19 15 10 12 21 28 25 19 13 6 4 5 7 7 8 9 7 5 11 12 5 2 3 0 3 3 3 4 4 2 1 2 3 2 5 9 2 7 5 1 1 5 2 4 3 5 10 8 10 14 14 13 10 9 9 9 7 6 5 3
21 21 20 20 20 21 20 20 20 20 21 20 19 15 14 14 14 14 14 13 11 9 8 6 5 4 2 7 9 8 5 9 16 19 18 19 17 10 3 3 5 6 6 8 8 5 8 10 4 3 2 2 4 4 2 3 4 3 1 2 1 2 3 7 3 3 5 2 1 2 4 2 1 7 10 9 8 8 12 12 9 9 10 8 5 5 5 4
22 22 21 20 19 20 20 19 19 19 20 19 18 15 13 14 15 16 16 13 11 10 7 4 3 4 6 9 8 6 5 8 11 9 8 12 16 15 7 2 3 5 6 6 8 6 5 6 2 1 2 2 3 5 2 2 3 3 1 2 2 3 2 4 4 2 5 5 2 4 5 4 3 9 11 7 3 3 10 13 10 10 9 7 5 5 7 6
24 22 21 20 19 19 19 19 18 18 19 17 16 15 14 14 16 17 15 11 6 5 6 6 4 3 6 10 6 5 6 7 9 9 7 6 8 14 11 4 3 6 7 4 5 5 3 2 2 2 2 3 3 5 4 5 5 3 2 2 2 1 2 3 4 2 3 5 4 5 4 3 3 10 11 7 4 5 8 9 7 10 9 6 6 7 7 7
25 22 20 20 19 18 19 18 17 18 18 15 13 13 11 11 11 9 6 5 3 2 2 5 6 3 3 5 3 8 13 11 10 9 7 7 8 10 10 5 5 6 5 3 2 4 4 2 3 4 4 5 6 6 7 7 7 7 4 4 3 2 2 4 4 5 2 5 5 5 5 5 7 11 11 9 6 3 4 3 1 4 7 6 6 8 7 7
25 22 20 19 18 18 18 18 17 17 16 14 12 8 5 3 2 2 3 6 7 6 3 3 9 6 6 2 4 15 14 7 5 4 6 9 12 10 5 3 5 5 4 5 4 3 4 4 3 5 6 7 8 8 8 7 6 5 4 4 3 2 3 4 3 7 4 3 1 5 7 7 9 11 10 10 6 3 5 6 2 5 4 8 7 8 7 5
26 23 20 18 17 17 17 17 16 15 15 12 9 3 1 2 1 1 2 6 11 13 11 7 11 12 11 8 7 14 10 5 6 6 7 8 12 10 3 3 5 2 3 6 4 1 4 5 6 5 7 9 8 8 8 6 5 4 5 3 1 1 4 4 1 7 5 1 2 3 8 8 10 11 9 10 8 7 9 12 10 7 5 7 9 9 8 5
26 24 19 17 16 16 16 16 14 14 14 10 9 4 3 3 3 1 2 3 9 14 16 15 13 14 18 20 16 8 4 5 8 9 7 7 8 8 4 4 6 4 3 5 4 3 3 4 6 6 6 7 5 6 8 7 5 3 3 3 0 2 4 4 2 6 4 2 3 0 6 6 7 7 11 12 11 9 8 8 11 9 7 6 9 10 8 7
25 22 18 16 15 15 15 14 13 12 11 11 9 6 2 2 2 1 0 3 7 9 12 14 14 13 17 18 15 6 2 5 5 8 6 8 6 6 7 6 6 5 4 6 6 6 4 5 6 6 6 8 5 4 8 6 4 4 4 4 2 3 1 2 2 6 5 2 1 3 4 1 1 3 7 8 4 3 3 3 3 6 3 3 4 8 8 8
20 18 17 16 14 13 14 13 12 11 11 14 11 8 5 5 3 1 1 2 6 5 10 15 13 11 15 13 8 10 6 6 5 5 5 8 5 5 7 6 7 6 5 7 7 7 4 5 6 9 7 9 7 4 8 6 3 2 4 5 3 3 3 3 2 4 5 5 2 6 5 5 1 4 5 2 3 5 6 4 3 3 4 4 4 4 8 8
15 14 15 14 12 12 12 11 10 9 10 12 8 6 5 9 8 4 2 0 4 3 6 11 8 8 15 11 9 11 4 5 7 6 4 5 7 5 4 4 5 6 7 8 8 6 5 4 7 11 6 7 8 5 6 7 4 2 4 6 7 5 5 2 3 5 5 4 2 4 2 4 3 5 6 4 4 6 4 3 4 3 4 3 3 2 4 8
13 13 13 12 10 10 8 6 6 8 8 7 5 3 4 10 4 8 3 2 4 3 3 6 6 9 13 11 9 7 1 4 9 12 9 6 6 5 4 3 2 5 7 7 5 3 4 3 7 10 8 7 7 5 5 7 6 2 5 7 7 6 5 2 3 3 2 1 2 3 3 3 4 4 6 6 7 7 4 6 8 7 6 8 5 3 2 7
12 11 11 10 8 7 4 2 3 6 5 4 4 2 7 10 3 10 3 2 3 3 4 3 4 8 11 12 13 8 2 3 4 9 12 9 6 3 6 5 3 4 4 5 3 2 5 6 6 7 8 7 6 4 6 7 8 3 5 8 9 7 7 5 4 3 2 2 4 4 4 2 2 5 4 7 8 6 5 8 9 9 8 10 10 5 3 6
11 10 9 8 7 7 6 3 3 3 5 8 5 6 11 5 8 7 2 0 2 1 4 2 5 8 8 12 16 9 4 3 4 5 10 12 7 2 5 6 6 7 5 6 5 4 4 8 7 7 6 5 6 6 8 9 6 5 6 9 9 8 7 6 6 4 1 1 4 5 2 3 4 5 2 8 8 6 8 11 10 10 10 11 12 10 6 6
11 9 8 7 7 8 7 6 5 4 4 8 2 10 10 4 8 2 1 2 1 1 3 3 4 4 5 8 12 9 4 1 3 4 6 8 7 1 4 6 8 8 4 5 6 3 3 8 10 9 6 5 6 6 10 11 4 4 6 7 5 4 3 3 5 4 2 2 3 6 2 2 3 4 3 8 8 8 10 11 11 11 12 12 11 13 10 7
10 9 8 7 8 6 5 7 9 8 5 5 8 11 6 5 5 1 1 2 1 1 2 2 2 4 9 9 7 9 6 2 1 5 5 4 4 1 2 4 6 6 3 4 6 5 1 3 5 7 5 5 6 5 8 11 7 5 6 5 4 4 4 3 2 4 3 2 5 7 6 4 2 4 4 7 8 11 11 8 9 10 12 12 10 11 11 8
9 9 7 7 6 3 1 3 5 5 4 5 8 4 2 4 1 1 3 1 2 1 1 2 2 6 12 11 6 8 6 2 1 7 6 4 4 2 3 4 3 5 3 2 4 5 2 3 2 3 6 6 6 4 3 5 6 6 4 4 2 3 3 4 4 3 3 4 6 5 6 5 3 5 5 6 7 12 13 11 13 14 13 13 10 10 10 8
8 7 7 8 6 5 4 3 5 4 1 2 1 1 3 2 0 2 3 3 2 2 2 2 3 6 10 9 7 9 7 2 2 8 9 7 6 4 5 6 4 5 4 2 3 3 2 2 2 2 6 8 7 5 2 1 4 5 5 6 4 1 1 1 2 1 3 5 4 2 3 3 4 6 6 8 8 11 14 13 14 15 13 12 11 11 9 8
6 5 6 7 7 7 8 5 5 3 3 4 2 2 1 2 2 4 3 2 3 4 4 1 1 5 9 6 6 8 6 3 3 7 8 8 7 4 3 5 6 6 3 3 4 2 1 4 4 1 3 6 9 7 5 2 4 6 5 5 5 3 3 4 3 0 2 4 2 1 1 2 4 4 3 5 5 6 8 7 7 10 9 9 11 11 8 8
4 4 6 6 8 8 7 5 5 5 4 2 2 2 2 2 2 3 0 2 4 6 6 4 4 3 8 4 4 8 5 2 3 7 7 8 8 7 5 5 6 6 4 4 4 4 4 4 5 5 2 5 9 7 6 6 5 5 4 5 5 4 5 4 3 3 3 3 2 2 1 2 2 3 4 3 3 1 6 8 7 9 9 8 10 11 8 8
4 4 5 5 5 5 5 5 5 4 2 1 2 2 1 1 2 1 2 3 4 6 9 7 1 4 5 2 2 8 5 2 4 6 6 7 8 7 6 5 5 5 6 6 3 3 6 5 6 5 4 7 9 5 6 9 4 2 3 5 4 5 5 1 2 5 4 2 1 1 1 2 2 3 3 1 2 4 8 10 9 9 9 9 10 11 9 7
3 3 3 3 2 2 4 6 5 3 3 1 2 1 1 1 2 3 3 4 5 7 11 6 3 5 3 2 3 7 4 1 4 4 4 6 5 6 6 4 4 5 6 6 3 2 5 3 6 3 5 6 9 8 6 6 4 1 3 5 4 4 6 3 1 0 3 3 1 1 1 2 1 3 0 6 7 6 9 10 11 9 9 10 7 9 9 6
4 2 1 3 2 1 6 8 5 3 3 1 2 2 2 0 3 4 4 6 7 8 7 2 2 3 4 2 3 8 4 1 4 3 3 4 3 6 7 4 4 6 7 6 2 3 5 2 5 4 7 6 5 8 6 5 7 6 4 5 3 3 3 3 1 2 4 2 1 1 2 2 1 2 3 9 9 9 10 10 11 9 9 9 4 4 8 8
5 3 3 6 4 4 8 8 5 3 2 0 0 1 1 2 3 3 4 7 8 7 4 1 1 1 4 3 3 7 4 2 3 3 4 3 2 5 9 5 4 7 7 5 2 2 4 1 5 5 8 5 2 6 5 3 4 5 5 7 5 3 2 1 2 1 2 2 1 2 3 3 2 2 5 10 11 12 11 9 11 11 9 10 7 5 8 10
4 2 2 7 3 6 6 6 4 3 1 1 1 1 3 3 2 3 4 6 7 6 4 1 2 2 2 3 4 5 2 3 5 2 3 3 1 4 8 5 4 7 8 5 3 2 3 3 3 4 6 6 4 4 5 4 0 4 5 6 3 3 4 3 3 3 3 3 1 0 2 3 3 4 8 12 11 13 13 11 13 13 10 11 10 8 9 10
1 1 2 6 1 6 4 4 4 2 0 2 1 2 3 3 1 2 4 5 4 3 2 2 3 3 2 0 3 4 2 3 5 2 2 4 2 2 6 6 6 7 6 4 4 1 2 3 1 4 2 6 5 5 7 8 4 4 5 6 3 2 2 2 1 2 4 4 3 2 1 5 5 3 7 11 10 12 14 13 12 12 12 12 10 9 9 10
0 1 2 6 4 3 3 2 2 2 1 1 1 2 4 4 2 3 4 4 4 3 4 5 4 3 3 2 1 2 3 3 3 2 1 4 4 1 5 6 8 8 5 3 4 2 2 3 2 1 1 5 5 4 7 11 9 6 5 5 5 3 4 3 1 1 3 4 3 4 2 6 5 2 4 7 9 10 11 11 9 9 12 12 11 9 9 11
1 1 1 6 7 1 1 1 1 1 1 0 2 2 4 4 3 4 4 3 4 5 4 5 5 5 4 3 1 1 3 3 2 2 1 4 5 3 5 7 10 9 6 4 4 4 3 4 3 1 3 5 5 1 6 13 12 8 5 4 4 4 5 6 5 3 3 2 1 3 1 4 5 3 2 4 8 8 9 10 10 9 10 12 12 10 10 11
2 1 2 7 7 2 3 3 2 2 0 1 3 3 3 3 2 2 3 3 3 3 3 3 5 4 3 4 2 2 3 3 3 3 1 2 4 5 6 9 11 10 7 4 4 3 2 3 3 1 3 3 3 4 3 7 9 6 4 4 5 4 3 5 5 4 4 3 1 2 1 4 5 4 1 7 9 8 8 9 10 10 8 11 13 11 11 12
2 1 1 6 6 2 2 1 2 2 2 2 3 4 3 3 3 4 4 3 3 2 2 3 3 2 2 3 2 2 3 2 3 4 2 2 3 4 7 10 10 10 7 4 5 3 2 2 3 3 1 3 2 2 3 3 5 4 3 5 6 5 6 4 3 4 3 5 5 4 2 5 4 2 5 9 10 9 9 9 10 9 8 10 12 10 11 12
2 1 2 4 5 3 2 1 1 2 3 3 4 6 5 3 4 7 7 6 6 5 3 4 3 4 4 2 2 1 2 2 3 3 3 2 3 1 6 9 8 7 6 7 7 5 3 3 3 4 4 3 4 5 3 4 4 2 3 6 7 8 9 5 3 4 3 4 4 5 4 4 2 3 7 9 10 9 10 11 10 10 9 10 10 10 9 10
1 1 2 4 3 3 1 1 1 2 3 3 4 4 3 2 3 6 9 8 8 8 6 6 5 5 4 0 3 3 1 1 2 4 4 3 2 2 3 9 8 6 7 11 11 6 3 2 4 6 5 5 6 7 5 3 4 3 5 8 8 8 9 7 5 4 5 4 3 5 5 5 6 7 7 9 11 10 10 12 12 11 11 10 10 10 9 9
1 0 1 1 2 2 1 1 1 2 3 3 3 3 3 4 5 3 5 6 6 6 5 5 4 3 2 2 3 2 2 3 1 5 4 2 2 3 1 5 8 8 9 11 9 6 4 2 4 5 3 4 5 6 5 2 5 7 8 9 8 7 8 8 5 6 6 7 3 6 5 9 10 10 9 11 13 12 11 12 11 12 12 11 10 11 11 11
1 0 1 1 1 1 1 1 2 4 5 4 2 3 4 5 6 3 3 5 5 5 4 2 1 2 1 3 3 1 2 3 3 3 2 1 1 3 4 1 4 7 8 8 5 4 6 3 4 4 1 2 2 3 2 3 3 3 6 9 9 9 9 9 7 7 8 8 5 7 10 9 9 12 12 12 13 13 13 12 10 11 12 12 11 12 12 11
0 0 1 1 1 1 3 4 4 6 6 5 3 3 4 5 6 4 3 4 4 3 4 1 2 1 1 4 4 2 1 3 3 2 1 2 1 1 3 1 2 3 4 6 4 2 4 3 4 5 2 4 6 6 3 4 3 4 4 2 6 9 9 7 5 5 7 5 4 9 12 5 3 9 10 7 8 9 10 10 10 11 12 13 13 12 12 11
1 1 1 1 2 3 4 4 5 5 5 4 4 3 3 4 4 5 3 3 3 3 1 2 2 2 3 4 4 3 2 4 4 0 0 2 2 2 3 2 1 2 4 6 3 1 2 2 3 5 4 5 6 6 6 3 3 5 4 3 3 8 6 5 4 4 5 3 2 9 9 3 3 5 9 8 9 10 11 12 12 12 12 14 14 13 12 12
4 4 3 2 2 2 2 3 3 3 3 2 3 3 3 3 5 6 4 3 1 2 2 2 2 2 3 4 4 2 1 2 4 4 4 3 1 0 1 2 3 5 6 5 3 2 4 1 1 5 4 2 4 6 6 5 5 7 5 4 3 6 5 3 3 3 5 7 8 8 5 5 4 7 10 10 12 13 13 13 13 11 12 14 14 14 13 13
8 5 3 2 2 1 2 3 2 2 2 2 3 5 5 5 6 5 3 3 2 1 2 2 1 1 4 6 6 5 3 2 4 6 5 5 3 2 1 4 5 6 6 5 2 2 5 4 2 5 5 2 3 4 5 5 6 3 1 1 1 1 3 3 2 1 4 9 9 5 5 6 7 10 12 12 14 16 15 14 14 13 13 13 14 15 14 13
Wind_Direction
303 302 303 303 303 304 305 306 306 306 309 308 309 312 313 314 316 318 319 321 324 325 325 324 323 322 322 324 325 324 322 318 313 313 278 251 254 249 247 245 250 276 258 229 243 257 63 63 94 113 124 123 115 165 168 180 101 80 101 142 210 199 203 189 188 196 207 282 290 301 340 329 298 35 65 25 98 114 103 73 74 56 58 98 115 128 132 135
298 299 300 300 300 300 302 304 304 304 305 306 308 309 311 313 314 317 318 318 322 323 323 324 324 323 322 324 325 325 322 317 312 294 265 259 265 260 253 251 251 259 253 217 233 195 135 121 162 112 100 124 314 142 154 210 141 134 127 170 224 198 213 197 189 219 236 278 292 304 321 317 277 159 94 85 126 125 112 100 96 96 96 100 111 122 128 134
291 296 296 296 297 298 299 299 301 301 301 304 304 306 309 311 313 314 317 319 320 321 322 322 323 323 323 325 325 324 321 318 310 274 269 272 269 264 256 249 247 249 244 232 252 205 170 161 156 125 88 131 318 134 150 210 180 174 139 200 243 206 233 233 210 239 249 264 291 303 318 357 284 157 79 120 141 137 138 147 138 135 131 122 123 125 129 135
287 288 290 292 293 293 296 296 297 298 299 301 302 304 306 308 311 310 315 319 320 321 320 321 325 323 323 325 322 321 320 318 285 237 328 338 299 295 257 240 240 240 240 233 242 235 177 135 137 123 99 150 306 114 159 220 190 184 164 201 237 194 233 249 221 238 255 255 263 290 324 18 311 47 95 139 137 154 201 187 166 156 147 138 137 131 132 136
297 290 285 284 287 288 291 293 294 294 295 298 299 301 303 307 308 310 315 316 319 322 319 321 323 323 324 324 321 320 322 318 263 140 58 360 338 336 273 231 228 230 231 223 221 208 183 133 108 85 88 146 274 102 208 229 155 171 225 212 229 208 233 248 225 234 249 251 264 292 327 351 294 60 137 156 166 235 222 205 174 152 150 146 143 139 135 136
306 301 292 282 282 284 285 287 289 291 293 294 297 299 301 304 305 308 313 314 320 321 319 320 321 326 325 321 321 317 281 240 344 104 357 335 332 336 296 220 216 217 213 199 184 169 163 118 101 112 96 123 170 172 235 246 144 212 271 253 239 238 237 248 241 237 230 274 284 281 316 330 74 96 159 148 276 272 185 129 125 127 135 137 139 140 139 136
307 306 303 294 286 281 279 281 283 286 289 291 294 297 300 302 303 306 310 315 318 319 319 318 320 325 324 325 323 311 174 267 278 309 323 325 319 327 319 207 204 199 193 179 164 161 143 120 138 149 115 120 180 199 236 258 164 213 261 282 261 247 238 243 254 261 256 265 269 264 309 294 169 161 155 87 314 278 102 104 115 118 121 126 131 133 133 131
307 304 305 303 296 286 278 274 278 281 284 288 290 294 297 298 300 303 309 313 313 318 319 315 319 325 324 330 338 4 273 253 258 285 310 320 322 330 342 184 189 184 180 177 173 163 140 142 166 154 125 191 179 182 210 180 304 220 232 264 268 256 246 249 263 272 269 258 253 264 304 277 186 145 79 67 47 87 104 109 120 126 126 127 129 128 130 140
307 305 304 302 301 298 287 275 273 275 278 283 287 290 294 296 298 302 307 309 311 317 316 315 317 323 325 332 25 287 261 245 258 277 298 324 342 346 9 168 181 178 172 180 178 163 157 166 184 172 159 200 174 175 189 162 244 222 216 246 261 274 276 272 272 265 261 249 209 246 323 358 159 106 79 120 120 118 115 119 129 133 132 129 131 139 150 157
306 305 305 303 302 302 298 285 272 269 273 277 282 287 290 294 298 299 304 306 309 310 310 312 312 323 332 343 82 249 260 248 251 256 284 354 17 12 354 168 177 173 162 168 174 170 173 177 182 160 144 176 174 183 163 161 208 203 201 254 256 266 281 264 267 271 252 246 200 183 192 199 253 74 131 148 129 128 121 123 133 133 133 135 143 157 159 145
307 305 304 303 301 298 300 297 281 268 266 270 276 283 288 293 295 299 303 303 302 303 306 305 308 321 322 336 146 232 245 195 204 223 317 341 354 10 4 161 173 170 157 156 184 184 170 176 171 127 145 186 162 198 210 194 233 213 196 295 282 282 293 241 256 274 195 245 207 152 148 292 340 28 157 150 133 134 129 128 133 134 136 141 154 162 138 117
306 305 304 301 301 299 298 301 294 278 264 264 271 276 285 291 293 297 298 300 300 299 303 299 304 313 304 295 238 231 228 228 248 292 307 312 321 327 9 173 179 174 162 161 197 194 179 184 152 114 207 167 135 211 232 239 294 278 184 320 301 342 331 250 237 231 173 197 182 133 68 335 342 347 154 141 133 135 133 131 134 140 139 141 157 158 121 125
304 304 304 301 299 299 297 296 298 293 275 263 264 268 277 287 291 295 297 299 299 297 297 295 295 302 307 276 247 245 252 272 283 292 285 288 300 293 210 181 188 187 181 181 195 194 193 204 186 147 195 123 156 233 104 330 333 277 347 77 315 2 329 266 136 145 164 183 175 137 67 284 303 260 152 144 141 139 137 138 141 141 138 150 165 152 117 129
301 301 302 301 299 297 296 295 296 300 289 267 259 263 269 280 288 292 296 294 294 296 291 292 291 292 280 257 266 269 269 276 283 278 266 270 284 278 237 199 191 192 200 205 202 205 207 210 206 178 263 137 182 303 357 1 12 290 296 47 8 25 282 286 86 138 142 223 183 117 114 243 283 203 155 154 150 143 144 148 148 144 147 161 173 154 124 141
298 298 299 300 300 297 296 296 295 298 296 275 257 257 264 275 283 283 290 291 292 293 290 296 282 276 291 271 276 287 279 267 265 258 253 259 262 268 273 202 192 197 208 212 203 218 210 197 173 161 253 252 93 18 350 349 2 29 209 295 354 155 268 305 265 150 133 257 239 109 148 255 275 184 162 158 161 149 148 156 152 149 154 161 173 157 129 145
294 295 297 297 298 298 295 295 295 295 297 282 258 253 260 266 273 274 283 290 289 287 292 298 252 212 265 279 289 302 266 232 249 256 256 255 244 240 257 160 172 182 194 201 181 170 178 167 147 168 180 78 100 101 46 349 332 1 133 227 290 179 267 315 293 140 114 122 332 96 153 223 248 181 171 156 164 155 147 154 149 150 163 163 162 153 137 140
292 292 293 295 296 298 295 293 295 293 296 286 261 251 256 262 271 278 284 287 280 271 262 267 242 192 242 278 301 296 258 232 249 274 275 259 242 232 226 180 155 145 134 156 162 141 141 155 158 168 120 95 121 114 107 245 259 321 12 173 234 201 193 296 301 17 80 109 47 38 130 196 212 171 169 139 117 168 159 161 154 153 171 167 142 147 150 143
288 289 289 292 294 296 295 292 294 293 296 291 260 248 256 268 279 281 280 271 262 259 247 255 251 192 251 277 285 287 309 299 285 290 272 249 228 217 204 172 111 122 108 98 148 143 140 173 107 119 123 125 134 121 163 207 189 194 182 151 233 237 174 255 280 305 42 94 107 71 107 201 194 164 159 131 135 189 173 166 165 157 162 161 140 149 158 147
283 285 287 290 290 293 293 292 294 293 300 295 255 247 265 280 287 278 256 220 174 145 228 221 200 180 301 262 258 325 319 304 293 282 234 192 182 192 185 155 95 109 122 110 172 166 149 97 86 145 172 166 172 162 174 189 173 177 173 144 155 169 229 245 260 273 345 84 122 132 150 166 164 168 155 145 162 162 110 86 292 178 149 147 147 154 162 151
278 278 280 282 285 291 291 292 295 295 304 289 245 244 275 283 299 265 189 191 204 224 243 189 199 239 310 271 7 352 334 307 307 282 211 182 162 154 156 131 84 82 126 145 178 188 143 151 181 184 182 181 182 171 164 162 151 141 124 118 121 139 262 272 275 291 326 65 142 147 157 166 165 174 159 150 150 99 113 136 229 265 179 157 164 165 160 147
274 271 274 276 279 285 287 291 293 297 302 272 222 202 215 179 136 70 167 216 227 235 253 246 216 237 267 267 331 360 354 319 321 294 243 193 158 153 172 137 116 132 178 151 144 106 137 175 202 193 181 174 172 170 152 132 124 109 119 124 64 157 256 271 269 303 322 53 311 106 134 175 178 171 152 143 152 163 176 173 178 234 239 171 164 168 153 128
274 267 269 271 273 279 284 288 288 298 295 247 200 191 218 231 229 133 73 265 244 228 239 251 240 249 261 262 277 324 358 289 300 296 249 189 172 177 171 130 139 172 183 144 116 118 167 208 207 192 170 144 137 156 143 137 143 114 113 125 205 243 268 288 319 323 334 82 297 93 131 191 200 161 152 163 179 182 188 182 169 187 225 202 170 163 145 126
276 265 265 270 273 278 284 286 285 296 276 221 192 189 202 310 255 219 158 288 275 228 217 235 237 246 253 256 259 246 228 236 261 291 237 171 183 182 151 137 149 157 163 162 153 148 178 234 207 170 137 127 118 132 131 136 147 126 128 139 211 258 249 267 313 325 333 54 166 142 106 274 304 111 150 171 188 126 73 34 124 155 193 245 177 144 137 135
282 263 260 268 270 273 283 286 283 287 255 221 205 208 243 290 272 349 91 233 282 244 206 215 215 229 241 241 215 187 211 224 200 267 238 167 165 155 150 150 143 156 176 163 148 147 195 237 174 139 136 147 145 143 137 139 169 182 173 163 185 227 197 209 286 325 346 10 87 102 49 337 344 158 164 104 59 78 66 47 48 69 68 358 343 102 129 132
293 266 260 264 263 270 282 286 276 267 244 221 210 223 283 301 266 237 71 332 278 265 212 208 203 230 228 207 168 169 201 241 207 235 252 174 166 145 147 156 145 174 176 147 135 152 223 239 145 138 152 158 152 164 163 153 164 221 222 194 176 175 196 244 359 18 30 2 328 91 70 301 303 204 185 138 128 116 94 135 144 108 111 118 341 336 128 120
298 274 267 258 255 270 280 292 266 239 227 210 182 180 343 344 271 195 139 4 268 246 172 173 178 205 198 168 155 152 133 262 213 211 226 217 196 159 146 160 137 167 162 143 138 167 208 179 142 151 157 160 163 180 193 160 140 209 233 190 163 150 167 172 49 53 81 234 287 74 147 251 310 246 194 156 151 135 143 193 181 168 169 165 167 255 191 125
306 285 272 255 253 264 269 309 251 213 194 168 135 95 345 354 152 171 147 352 269 206 146 162 182 171 165 161 159 147 195 249 177 191 210 218 227 168 154 175 135 149 158 133 153 223 179 153 144 151 148 160 175 185 197 156 131 222 226 159 152 157 171 177 140 150 201 245 322 11 122 147 289 251 190 147 150 144 171 210 201 175 178 183 168 173 205 144
309 296 278 261 259 254 247 263 250 215 158 139 115 5 353 24 149 161 106 74 256 159 133 193 198 157 147 163 163 165 219 204 135 179 197 200 213 124 144 181 147 152 168 140 173 235 170 162 163 153 156 177 182 178 174 151 142 231 202 147 158 173 180 181 161 178 209 56 319 308 128 135 269 273 143 144 161 170 189 208 209 182 181 193 165 151 179 164
302 294 282 272 271 267 257 248 239 234 171 150 179 323 343 100 154 150 58 180 237 122 115 144 182 148 122 152 173 198 233 187 162 175 163 186 213 166 149 176 143 147 158 130 165 211 172 179 172 155 170 189 172 164 159 155 174 219 162 123 110 109 110 138 147 153 94 90 247 253 197 150 270 279 137 151 181 194 199 206 207 191 187 192 166 154 169 158
292 286 282 275 272 275 265 245 241 241 232 217 258 301 337 134 157 133 189 222 318 99 101 127 187 142 136 147 182 215 228 315 147 135 113 160 204 258 109 127 117 126 103 98 164 211 264 160 164 156 170 171 155 156 165 167 161 146 139 110 69 47 51 66 85 99 103 254 247 227 202 170 263 274 172 173 196 194 194 198 195 192 186 182 166 156 160 150
285 280 276 269 264 264 239 232 238 228 228 250 260 280 112 143 200 171 182 266 358 14 45 131 153 133 148 157 174 203 218 298 138 146 146 154 168 175 134 133 103 108 109 107 176 239 304 98 147 181 160 138 129 140 169 173 146 117 114 119 107 329 12 33 4 60 136 251 259 231 199 160 203 256 213 200 194 183 190 191 185 186 178 170 161 151 153 149
282 276 267 260 254 246 227 165 132 143 146 310 282 155 142 141 289 206 239 318 24 2 348 130 140 149 161 169 173 184 187 215 200 163 156 152 164 178 164 169 159 134 165 171 156 246 251 178 270 244 165 147 131 136 131 130 146 125 100 113 133 281 353 282 268 188 205 242 253 225 167 159 224 246 227 210 195 186 193 192 186 183 171 162 157 149 151 148
286 271 261 252 245 239 233 205 170 188 312 356 65 144 150 103 169 221 266 331 36 353 334 15 355 172 164 167 183 183 180 196 202 167 155 149 155 177 187 171 146 132 165 166 133 147 249 285 286 258 191 165 148 155 166 169 171 159 141 133 144 145 157 219 236 328 257 243 277 343 159 226 262 273 255 224 225 206 180 166 165 167 159 153 149 143 147 145
300 263 251 242 241 237 233 220 201 220 288 341 123 148 101 108 212 229 267 350 348 335 323 333 334 174 163 177 186 170 176 235 189 156 153 152 158 182 200 177 150 117 111 144 153 161 173 243 231 188 217 182 165 169 157 140 145 164 149 129 145 159 158 204 211 177 218 231 317 336 189 195 222 281 301 272 273 233 124 111 117 141 146 143 142 138 141 142
311 265 252 246 244 233 218 195 176 189 259 263 157 153 132 183 258 318 51 349 333 331 320 314 348 142 171 239 196 171 180 221 174 147 155 164 166 180 181 175 171 128 121 159 191 171 169 226 246 202 188 169 167 166 124 118 125 190 133 123 175 187 143 121 189 172 176 173 348 318 226 212 209 283 312 134 154 136 122 114 119 137 143 143 146 142 140 143
334 275 262 264 254 210 183 176 172 202 240 205 135 145 222 241 346 15 21 347 329 328 325 317 123 128 180 235 183 190 204 165 154 140 149 160 156 172 173 168 172 150 139 157 191 161 152 243 273 203 182 183 169 167 159 147 151 160 150 166 195 160 119 105 233 76 87 134 218 317 253 255 290 310 181 132 132 133 132 130 135 148 149 144 145 137 134 136
356 332 20 18 355 124 152 165 181 237 240 196 121 178 237 347 30 20 6 342 325 320 327 330 120 127 178 204 177 187 198 123 142 137 152 162 160 172 172 169 166 165 159 150 186 199 147 218 263 178 184 227 178 153 165 162 143 135 183 196 156 100 96 105 188 358 52 143 259 334 211 203 174 289 172 148 146 149 150 143 141 152 147 134 120 113 130 129
327 310 35 30 30 144 155 166 192 248 238 164 27 233 302 32 60 44 359 335 327 325 331 320 314 113 152 171 182 178 179 160 148 129 150 175 223 170 162 165 168 178 182 149 130 199 135 150 267 197 177 201 114 125 154 187 148 129 175 185 147 152 202 117 152 191 115 160 284 320 263 229 193 228 186 169 166 159 156 147 146 157 149 131 133 144 134 127
313 268 28 20 54 158 160 174 203 257 226 150 298 298 1 24 75 62 2 334 330 327 323 330 345 352 157 169 175 169 148 155 161 133 142 162 259 181 168 158 160 190 196 152 127 182 123 111 271 250 183 157 123 145 180 203 213 77 136 176 155 147 171 158 161 166 144 155 180 283 293 266 229 218 195 185 176 161 159 158 156 160 151 136 142 150 136 124
311 209 25 3 18 173 178 196 212 300 196 169 269 318 2 12 30 32 356 330 328 321 292 313 351 345 306 289 162 164 105 124 156 133 141 155 111 190 191 161 151 182 188 148 150 165 85 115 221 288 213 152 167 207 186 169 158 126 150 183 181 97 121 151 146 101 125 145 161 141 221 258 248 216 193 190 179 167 164 160 157 152 143 137 137 139 134 126
327 64 9 3 7 183 182 196 231 358 42 185 327 329 351 357 330 329 326 294 275 246 247 273 281 282 300 324 146 154 102 106 146 108 119 169 136 148 213 173 150 159 151 141 177 176 96 141 177 266 190 174 207 218 161 158 164 161 168 182 175 140 117 141 220 295 107 123 163 155 186 257 259 263 214 188 168 169 164 151 144 138 136 134 129 134 137 129
43 40 325 17 17 324 125 75 288 12 87 359 343 309 319 332 316 321 323 290 263 238 235 259 247 238 253 237 197 134 124 126 141 123 130 176 166 184 201 169 150 151 145 148 189 198 151 128 124 204 217 207 230 264 148 166 167 160 174 176 154 145 138 152 197 217 112 93 151 129 119 265 267 286 250 155 140 155 157 146 140 135 133 129 126 133 135 126
51 7 340 23 13 343 67 49 326 347 359 283 307 295 296 308 285 288 295 279 257 237 232 253 237 225 233 226 210 140 139 133 151 171 167 169 195 213 189 164 152 151 150 158 183 192 157 118 112 243 279 297 314 356 77 156 156 155 187 173 156 171 155 154 177 167 138 153 150 87 36 269 282 310 88 115 119 135 142 143 140 136 134 131 129 137 136 126
25 314 314 13 7 12 80 67 316 325 317 306 304 286 261 241 232 242 259 247 234 259 284 258 238 258 285 253 221 168 149 137 172 185 162 167 220 212 168 166 162 155 162 186 179 173 194 165 100 102 43 1 3 36 65 141 171 178 187 178 176 156 109 112 137 109 143 190 156 130 214 260 284 348 100 114 121 130 136 140 137 132 133 134 133 138 135 127
356 11 286 334 4 40 87 122 338 308 313 318 293 278 267 246 225 225 238 242 229 230 262 262 271 303 289 289 355 357 110 119 171 180 147 172 252 260 152 172 174 157 168 179 162 154 179 181 116 120 147 156 174 189 186 175 184 194 159 170 178 153 136 146 132 114 180 204 145 148 200 242 244 129 125 130 133 137 143 143 139 134 134 137 136 135 132 128
35 56 317 319 360 39 86 281 339 313 317 321 290 281 271 261 259 235 234 246 234 216 231 263 282 290 266 246 30 7 13 17 187 161 139 161 245 311 156 172 175 170 173 164 150 133 119 165 155 145 161 177 189 217 234 168 153 172 170 170 176 168 154 136 118 156 181 157 166 215 183 154 169 164 150 148 145 143 149 149 146 143 142 143 140 136 133 131
76 92 320 318 337 360 336 294 296 280 298 314 311 309 278 270 297 270 216 229 229 202 213 246 244 251 255 108 67 19 338 343 73 137 138 163 241 313 349 164 176 187 176 159 151 126 101 185 189 140 160 209 200 229 257 203 171 177 169 169 173 167 148 129 144 188 158 128 208 248 175 157 182 184 169 161 156 154 157 157 153 148 145 144 139 136 135 135
60 223 244 273 295 300 289 277 262 255 261 266 274 289 282 279 290 281 220 244 247 196 190 241 251 251 252 113 106 59 356 12 41 88 102 84 36 357 16 64 198 202 176 157 165 135 118 187 207 123 91 297 346 307 275 137 146 140 147 168 169 165 169 164 174 184 153 147 210 210 178 180 191 183 178 171 160 157 156 152 146 141 141 140 139 139 139 142
19 265 259 285 292 255 268 280 278 265 254 245 240 250 260 268 278 283 267 280 290 214 177 125 32 355 44 89 99 84 49 66 55 26 39 84 72 67 79 79 258 233 164 152 181 156 124 185 191 129 80 9 9 352 16 109 114 66 61 178 168 165 175 165 159 166 146 151 196 170 169 196 210 175 170 152 133 134 135 135 137 142 145 143 144 145 144 148
333 297 297 298 278 268 277 283 281 277 267 246 238 245 240 248 306 330 300 263 314 341 61 77 29 2 35 70 98 111 102 112 119 196 359 87 71 95 149 179 186 129 140 156 185 188 123 187 181 116 73 1 3 11 21 51 113 101 55 4 122 136 133 116 129 140 110 82 101 137 149 226 266 156 138 125 125 129 136 144 146 150 152 149 148 149 151 155
326 291 290 292 281 280 280 276 266 278 290 248 237 290 299 287 330 344 307 254 297 1 360 340 320 339 28 52 66 67 57 120 170 222 224 170 137 163 190 187 150 139 148 160 168 137 122 134 79 96 97 314 353 23 3 7 67 88 62 29 104 130 127 130 149 155 141 130 114 114 146 222 212 149 134 136 141 142 149 154 152 154 158 155 153 154 158 160
340 312 310 309 300 332 323 295 274 275 303 289 294 327 329 306 323 344 321 304 329 357 340 316 285 32 33 32 24 1 343 292 241 244 225 194 208 251 178 125 120 137 152 145 112 125 134 131 125 114 133 242 333 12 343 10 62 75 11 41 165 149 118 124 117 187 175 145 133 149 200 190 158 147 146 150 155 160 164 163 159 159 161 160 158 158 161 165